Location: *
(51.5000°N, 0.1100°W)
Time: 05:23:18
(UTC+00:00)

IDEFIX/ARIANE 42P - Pass Details

Date: 10 August 2024
Orbit: 782 x 799 km, 98.5° (Epoch: 08 September)

Event Time Altitude Azimuth Distance (km) Brightness Sun altitude
Rises 02:38:56 0° 11° (N) 3,284 6.9 -15.2°
Reaches altitude 10° 02:41:20 10° 5° (N) 2,352 5.9 -15.0°
Maximum altitude 02:46:15 45° 294° (WNW) 1,058 3.1 -14.5°
Enters shadow 02:49:25 21° 232° (SW) 1,715 3.7 -14.2°
